Location: Eferding
(48.3167°N, 14.0167°E)
Time: 02:36:07
(UTC+00:00)

Feng Yun 1-1 Rocket - Pass Details

Date: 12 November 2019
Orbit: 829 x 934 km, 99.2° (Epoch: 10 December)

Event Time Altitude Azimuth Distance (km) Brightness Sun altitude
Rises 16:14:25 0° 162° (SSE) 3,490 7.4 -7.7°
Reaches altitude 10° 16:16:50 10° 162° (SSE) 2,539 6.7 -8.1°
Maximum altitude 16:22:29 89° 77° (ENE) 874 4.3 -9.0°
Drops below altitude 10° 16:28:02 10° 345° (NNW) 2,489 6.7 -9.9°
Sets 16:30:22 0° 345° (NNW) 3,417 7.4 -10.3°
